| time (UTC) | temp C | wind direction | speed KPH | gust KPH | rain 1hr cm | rain 24hr cm | rain mn cm | humidity % | barometer mb |
| 20260906215109 | 39 | 177 | 6.4 | 6.4 | 0.00 | 0.00 | 0.00 | 29 | 1011.5 |
| 20260906214608 | 38 | 156 | 0.0 | 0.0 | 0.00 | 0.00 | 0.00 | 29 | 1011.5 |
| 20260906214103 | 38 | 152 | 0.0 | 1.6 | 0.00 | 0.00 | 0.00 | 30 | 1011.6 |
| 20260906213601 | 38 | 105 | 0.0 | 0.0 | 0.00 | 0.00 | 0.00 | 30 | 1011.7 |
| 20260906213057 | 38 | 211 | 1.6 | 1.6 | 0.00 | 0.00 | 0.00 | 28 | 1011.7 |
| 20260906212549 | 38 | 136 | 0.0 | 0.0 | 0.00 | 0.00 | 0.00 | 29 | 1011.9 |
| 20260906212045 | 40 | 187 | 9.7 | 14.5 | 0.00 | 0.00 | 0.00 | 29 | 1012.0 |
| 20260906211539 | 39 | 124 | 0.0 | 1.6 | 0.00 | 0.00 | 0.00 | 30 | 1011.8 |
| 20260906211035 | 40 | 143 | 4.8 | 9.7 | 0.00 | 0.00 | 0.00 | 29 | 1011.9 |
| 20260906210530 | 39 | 127 | 1.6 | 1.6 | 0.00 | 0.00 | 0.00 | 30 | 1011.9 |
| 20260906210030 | 40 | 197 | 4.8 | 6.4 | 0.00 | 0.00 | 0.00 | 29 | 1012.0 |
| 20260906205525 | 38 | 109 | 3.2 | 4.8 | 0.00 | 0.00 | 0.00 | 29 | 1012.2 |
| 20260906205022 | 39 | 165 | 4.8 | 4.8 | 0.00 | 0.00 | 0.00 | 30 | 1012.2 |
| 20260906204521 | 39 | 108 | 6.4 | 9.7 | 0.00 | 0.00 | 0.00 | 29 | 1012.2 |
| 20260906204020 | 39 | 153 | 1.6 | 3.2 | 0.00 | 0.00 | 0.00 | 29 | 1012.5 |
| 20260906203515 | 38 | 151 | 0.0 | 0.0 | 0.00 | 0.00 | 0.00 | 30 | 1012.6 |
| 20260906203015 | 37 | 96 | 4.8 | 6.4 | 0.00 | 0.00 | 0.00 | 30 | 1012.5 |
| 20260906202506 | 37 | 39 | 1.6 | 3.2 | 0.00 | 0.00 | 0.00 | 31 | 1012.6 |
| 20260906202001 | 38 | 169 | 1.6 | 1.6 | 0.00 | 0.00 | 0.00 | 30 | 1012.6 |
| 20260906201455 | 38 | 114 | 1.6 | 1.6 | 0.00 | 0.00 | 0.00 | 30 | 1012.6 |
| 20260906200950 | 38 | 279 | 4.8 | 4.8 | 0.00 | 0.00 | 0.00 | 30 | 1012.6 |
| 20260906200447 | 38 | 77 | 1.6 | 1.6 | 0.00 | 0.00 | 0.00 | 31 | 1012.6 |
| 20260906195946 | 37 | 138 | 3.2 | 3.2 | 0.00 | 0.00 | 0.00 | 31 | 1012.7 |
| 20260906195437 | 38 | 73 | 1.6 | 1.6 | 0.00 | 0.00 | 0.00 | 30 | 1012.8 |
| 20260906194933 | 39 | 138 | 6.4 | 9.7 | 0.00 | 0.00 | 0.00 | 30 | 1012.9 |
| 20260906194429 | 39 | 137 | 3.2 | 4.8 | 0.00 | 0.00 | 0.00 | 30 | 1013.0 |
| 20260906193924 | 39 | 82 | 3.2 | 3.2 | 0.00 | 0.00 | 0.00 | 30 | 1013.1 |
| 20260906193419 | 38 | 83 | 3.2 | 3.2 | 0.00 | 0.00 | 0.00 | 29 | 1013.0 |
| 20260906192915 | 38 | 142 | 3.2 | 4.8 | 0.00 | 0.00 | 0.00 | 30 | 1013.1 |
| 20260906192414 | 37 | 178 | 4.8 | 6.4 | 0.00 | 0.00 | 0.00 | 31 | 1013.1 |
| 20260906191914 | 37 | 56 | 0.0 | 1.6 | 0.00 | 0.00 | 0.00 | 32 | 1013.2 |
| 20260906191409 | 37 | 50 | 1.6 | 3.2 | 0.00 | 0.00 | 0.00 | 32 | 1013.3 |
| 20260906190907 | 37 | 56 | 1.6 | 1.6 | 0.00 | 0.00 | 0.00 | 33 | 1013.2 |
| 20260906190406 | 38 | 188 | 3.2 | 9.7 | 0.00 | 0.00 | 0.00 | 31 | 1013.3 |
| 20260906185901 | 39 | 12 | 1.6 | 3.2 | 0.00 | 0.00 | 0.00 | 30 | 1013.3 |
| 20260906185401 | 38 | 164 | 3.2 | 4.8 | 0.00 | 0.00 | 0.00 | 30 | 1013.4 |
| 20260906184901 | 38 | 133 | 0.0 | 1.6 | 0.00 | 0.00 | 0.00 | 31 | 1013.3 |
| 20260906184356 | 37 | 246 | 3.2 | 3.2 | 0.00 | 0.00 | 0.00 | 31 | 1013.6 |
| 20260906183851 | 37 | 66 | 0.0 | 1.6 | 0.00 | 0.00 | 0.00 | 35 | 1013.7 |
| 20260906183348 | 37 | 128 | 1.6 | 1.6 | 0.00 | 0.00 | 0.00 | 35 | 1013.7 |
| 20260906182847 | 37 | 144 | 3.2 | 6.4 | 0.00 | 0.00 | 0.00 | 34 | 1014.0 |
| 20260906182343 | 37 | 5 | 1.6 | 3.2 | 0.00 | 0.00 | 0.00 | 35 | 1013.8 |
| 20260906181838 | 37 | 56 | 0.0 | 0.0 | 0.00 | 0.00 | 0.00 | 36 | 1014.0 |
| 20260906181334 | 37 | 97 | 0.0 | 1.6 | 0.00 | 0.00 | 0.00 | 35 | 1014.2 |
| 20260906180829 | 36 | 55 | 1.6 | 3.2 | 0.00 | 0.00 | 0.00 | 36 | 1014.1 |
| 20260906180324 | 36 | 53 | 1.6 | 3.2 | 0.00 | 0.00 | 0.00 | 36 | 1014.2 |
| 20260906175821 | 35 | 73 | 0.0 | 0.0 | 0.00 | 0.00 | 0.00 | 38 | 1014.1 |
| 20260906175317 | 37 | 75 | 1.6 | 3.2 | 0.00 | 0.00 | 0.00 | 37 | 1014.2 |
| 20260906174816 | 37 | 103 | 3.2 | 3.2 | 0.00 | 0.00 | 0.00 | 36 | 1014.4 |
| 20260906174310 | 36 | 152 | 0.0 | 1.6 | 0.00 | 0.00 | 0.00 | 37 | 1014.4 |
| 20260906173805 | 36 | 200 | 1.6 | 1.6 | 0.00 | 0.00 | 0.00 | 37 | 1014.4 |
| 20260906173301 | 36 | 75 | 0.0 | 1.6 | 0.00 | 0.00 | 0.00 | 37 | 1014.7 |
| 20260906172759 | 37 | 61 | 0.0 | 1.6 | 0.00 | 0.00 | 0.00 | 36 | 1014.6 |
| 20260906172255 | 37 | 174 | 1.6 | 3.2 | 0.00 | 0.00 | 0.00 | 35 | 1014.8 |
| 20260906171750 | 37 | 164 | 1.6 | 3.2 | 0.00 | 0.00 | 0.00 | 36 | 1014.8 |
| 20260906171245 | 36 | 175 | 4.8 | 4.8 | 0.00 | 0.00 | 0.00 | 36 | 1014.8 |
| 20260906170741 | 36 | 66 | 0.0 | 1.6 | 0.00 | 0.00 | 0.00 | 37 | 1014.8 |
| 20260906170237 | 37 | 127 | 1.6 | 1.6 | 0.00 | 0.00 | 0.00 | 36 | 1015.1 |
| 20260906165732 | 36 | 226 | 1.6 | 3.2 | 0.00 | 0.00 | 0.00 | 36 | 1015.3 |
| 20260906165227 | 36 | 63 | 1.6 | 1.6 | 0.00 | 0.00 | 0.00 | 36 | 1015.0 |
| 20260906164726 | 36 | 92 | 1.6 | 1.6 | 0.00 | 0.00 | 0.00 | 37 | 1015.1 |
| 20260906164216 | 37 | 50 | 0.0 | 0.0 | 0.00 | 0.00 | 0.00 | 36 | 1015.4 |
| 20260906163712 | 36 | 190 | 3.2 | 3.2 | 0.00 | 0.00 | 0.00 | 37 | 1015.1 |
| 20260906163208 | 36 | 49 | 3.2 | 3.2 | 0.00 | 0.00 | 0.00 | 39 | 1015.3 |
| 20260906162705 | 36 | 181 | 3.2 | 3.2 | 0.00 | 0.00 | 0.00 | 37 | 1015.3 |
| 20260906162205 | 35 | 150 | 0.0 | 1.6 | 0.00 | 0.00 | 0.00 | 40 | 1015.5 |
| 20260906161659 | 35 | 129 | 0.0 | 1.6 | 0.00 | 0.00 | 0.00 | 39 | 1015.4 |
| 20260906161158 | 35 | 146 | 0.0 | 0.0 | 0.00 | 0.00 | 0.00 | 39 | 1015.4 |
| 20260906160658 | 35 | 134 | 0.0 | 0.0 | 0.00 | 0.00 | 0.00 | 41 | 1015.3 |
| 20260906160156 | 35 | 168 | 1.6 | 1.6 | 0.00 | 0.00 | 0.00 | 40 | 1015.3 |
| 20260906155654 | 36 | 98 | 0.0 | 1.6 | 0.00 | 0.00 | 0.00 | 39 | 1015.1 |
| 20260906155150 | 36 | 127 | 0.0 | 0.0 | 0.00 | 0.00 | 0.00 | 39 | 1015.1 |
| 20260906154645 | 35 | 151 | 0.0 | 0.0 | 0.00 | 0.00 | 0.00 | 40 | 1015.3 |
| 20260906154145 | 35 | 145 | 1.6 | 1.6 | 0.00 | 0.00 | 0.00 | 40 | 1015.4 |
| 20260906153644 | 34 | 202 | 0.0 | 1.6 | 0.00 | 0.00 | 0.00 | 42 | 1015.4 |
| 20260906153138 | 34 | 87 | 1.6 | 1.6 | 0.00 | 0.00 | 0.00 | 42 | 1015.1 |
| 20260906152633 | 33 | 99 | 0.0 | 0.0 | 0.00 | 0.00 | 0.00 | 44 | 1015.3 |
| 20260906152127 | 34 | 117 | 0.0 | 0.0 | 0.00 | 0.00 | 0.00 | 43 | 1015.1 |
| 20260906151622 | 35 | 105 | 0.0 | 0.0 | 0.00 | 0.00 | 0.00 | 42 | 1015.0 |
| 20260906151118 | 33 | 151 | 0.0 | 0.0 | 0.00 | 0.00 | 0.00 | 42 | 1015.0 |
| 20260906150613 | 33 | 150 | 1.6 | 1.6 | 0.00 | 0.00 | 0.00 | 43 | 1015.1 |
| 20260906150109 | 33 | 208 | 0.0 | 1.6 | 0.00 | 0.00 | 0.00 | 44 | 1015.0 |
| 20260906145607 | 33 | 150 | 0.0 | 0.0 | 0.00 | 0.00 | 0.00 | 44 | 1014.8 |
| 20260906145102 | 32 | 150 | 1.6 | 1.6 | 0.00 | 0.00 | 0.00 | 45 | 1015.0 |
| 20260906144556 | 32 | 126 | 3.2 | 3.2 | 0.00 | 0.00 | 0.00 | 46 | 1015.0 |
| 20260906144052 | 32 | 196 | 0.0 | 1.6 | 0.00 | 0.00 | 0.00 | 47 | 1015.0 |
| 20260906143546 | 31 | 141 | 0.0 | 0.0 | 0.00 | 0.00 | 0.00 | 48 | 1015.0 |
| 20260906143043 | 31 | 158 | 0.0 | 0.0 | 0.00 | 0.00 | 0.00 | 48 | 1015.1 |
| 20260906142537 | 31 | 142 | 0.0 | 1.6 | 0.00 | 0.00 | 0.00 | 50 | 1015.1 |
| 20260906142033 | 31 | 200 | 1.6 | 3.2 | 0.00 | 0.00 | 0.00 | 50 | 1015.1 |
| 20260906141531 | 31 | 143 | 1.6 | 1.6 | 0.00 | 0.00 | 0.00 | 50 | 1015.3 |
| 20260906141027 | 30 | 140 | 0.0 | 1.6 | 0.00 | 0.00 | 0.00 | 52 | 1015.3 |
| 20260906140520 | 30 | 145 | 0.0 | 0.0 | 0.00 | 0.00 | 0.00 | 53 | 1015.0 |
| 20260906140020 | 29 | 137 | 1.6 | 1.6 | 0.00 | 0.00 | 0.00 | 54 | 1015.3 |
| 20260906135517 | 28 | 124 | 1.6 | 1.6 | 0.00 | 0.00 | 0.00 | 55 | 1015.0 |
| 20260906135013 | 28 | 142 | 1.6 | 1.6 | 0.00 | 0.00 | 0.00 | 56 | 1015.0 |
| 20260906134508 | 27 | 183 | 1.6 | 1.6 | 0.00 | 0.00 | 0.00 | 59 | 1015.0 |
| 20260906134008 | 27 | 150 | 3.2 | 3.2 | 0.00 | 0.00 | 0.00 | 59 | 1015.0 |
| 20260906133504 | 27 | 132 | 0.0 | 1.6 | 0.00 | 0.00 | 0.00 | 60 | 1014.9 |
| 20260906133000 | 26 | 156 | 0.0 | 0.0 | 0.00 | 0.00 | 0.00 | 61 | 1014.7 |
| 20260906132454 | 26 | 162 | 0.0 | 0.0 | 0.00 | 0.00 | 0.00 | 62 | 1014.8 |
| 20260906131949 | 26 | 161 | 0.0 | 0.0 | 0.00 | 0.00 | 0.00 | 62 | 1014.9 |
| 20260906131445 | 26 | 175 | 0.0 | 1.6 | 0.00 | 0.00 | 0.00 | 63 | 1014.9 |
| 20260906130941 | 25 | 152 | 0.0 | 0.0 | 0.00 | 0.00 | 0.00 | 64 | 1014.8 |
| 20260906130440 | 25 | 145 | 0.0 | 1.6 | 0.00 | 0.00 | 0.00 | 65 | 1014.7 |
| 20260906125934 | 25 | 137 | 0.0 | 0.0 | 0.00 | 0.00 | 0.00 | 65 | 1014.6 |
| 20260906125431 | 25 | 154 | 0.0 | 0.0 | 0.00 | 0.00 | 0.00 | 66 | 1014.6 |
| 20260906124926 | 24 | 166 | 0.0 | 0.0 | 0.00 | 0.00 | 0.00 | 66 | 1014.6 |
| 20260906124422 | 24 | 142 | 0.0 | 0.0 | 0.00 | 0.00 | 0.00 | 67 | 1014.5 |
| 20260906123922 | 24 | 145 | 0.0 | 0.0 | 0.00 | 0.00 | 0.00 | 67 | 1014.6 |
| 20260906123416 | 24 | 149 | 0.0 | 0.0 | 0.00 | 0.00 | 0.00 | 67 | 1014.5 |
| 20260906122916 | 24 | 156 | 0.0 | 0.0 | 0.00 | 0.00 | 0.00 | 66 | 1014.3 |
| 20260906122416 | 24 | 144 | 0.0 | 0.0 | 0.00 | 0.00 | 0.00 | 66 | 1014.2 |
| 20260906121913 | 24 | 148 | 0.0 | 0.0 | 0.00 | 0.00 | 0.00 | 66 | 1014.3 |
| 20260906121409 | 24 | 151 | 0.0 | 0.0 | 0.00 | 0.00 | 0.00 | 66 | 1014.1 |
| 20260906120905 | 24 | 157 | 0.0 | 0.0 | 0.00 | 0.00 | 0.00 | 66 | 1013.9 |
| 20260906120400 | 24 | 164 | 0.0 | 0.0 | 0.00 | 0.00 | 0.00 | 66 | 1013.8 |
| 20260906115856 | 24 | 152 | 0.0 | 0.0 | 0.00 | 0.00 | 0.00 | 65 | 1013.8 |
| 20260906115351 | 24 | 183 | 0.0 | 1.6 | 0.00 | 0.00 | 0.00 | 65 | 1013.9 |
| 20260906114850 | 24 | 157 | 0.0 | 0.0 | 0.00 | 0.00 | 0.00 | 65 | 1013.9 |
| 20260906114346 | 24 | 158 | 0.0 | 0.0 | 0.00 | 0.00 | 0.00 | 64 | 1013.7 |
| 20260906113841 | 24 | 203 | 1.6 | 3.2 | 0.00 | 0.00 | 0.00 | 64 | 1013.7 |
| 20260906113340 | 24 | 153 | 1.6 | 1.6 | 0.00 | 0.00 | 0.00 | 64 | 1013.6 |
| 20260906112836 | 24 | 157 | 0.0 | 0.0 | 0.00 | 0.00 | 0.00 | 64 | 1013.4 |
| 20260906112332 | 25 | 144 | 1.6 | 1.6 | 0.00 | 0.00 | 0.00 | 63 | 1013.7 |
| 20260906111831 | 25 | 153 | 0.0 | 0.0 | 0.00 | 0.00 | 0.00 | 63 | 1013.6 |
| 20260906111326 | 25 | 149 | 0.0 | 0.0 | 0.00 | 0.00 | 0.00 | 63 | 1013.7 |
| 20260906110821 | 25 | 185 | 0.0 | 0.0 | 0.00 | 0.00 | 0.00 | 63 | 1013.6 |
| 20260906110317 | 25 | 161 | 0.0 | 0.0 | 0.00 | 0.00 | 0.00 | 62 | 1013.4 |
| 20260906105816 | 25 | 146 | 1.6 | 1.6 | 0.00 | 0.00 | 0.00 | 62 | 1013.5 |
| 20260906105312 | 25 | 150 | 0.0 | 0.0 | 0.00 | 0.00 | 0.00 | 62 | 1013.5 |
| 20260906104807 | 25 | 175 | 0.0 | 1.6 | 0.00 | 0.00 | 0.00 | 61 | 1013.6 |
| 20260906104305 | 25 | 147 | 0.0 | 0.0 | 0.00 | 0.00 | 0.00 | 61 | 1013.4 |
| 20260906103803 | 25 | 156 | 0.0 | 0.0 | 0.00 | 0.00 | 0.00 | 61 | 1013.2 |
| 20260906103303 | 25 | 146 | 0.0 | 0.0 | 0.00 | 0.00 | 0.00 | 61 | 1013.4 |
| 20260906102759 | 25 | 157 | 0.0 | 0.0 | 0.00 | 0.00 | 0.00 | 61 | 1013.3 |
| 20260906102258 | 25 | 139 | 0.0 | 0.0 | 0.00 | 0.00 | 0.00 | 60 | 1013.1 |
| 20260906101754 | 25 | 149 | 0.0 | 0.0 | 0.00 | 0.00 | 0.00 | 60 | 1013.3 |
| 20260906101254 | 25 | 154 | 0.0 | 0.0 | 0.00 | 0.00 | 0.00 | 59 | 1013.5 |
| 20260906100749 | 25 | 161 | 0.0 | 0.0 | 0.00 | 0.00 | 0.00 | 59 | 1013.3 |
| 20260906100248 | 25 | 152 | 0.0 | 0.0 | 0.00 | 0.00 | 0.00 | 59 | 1013.2 |
| 20260906095744 | 25 | 179 | 0.0 | 0.0 | 0.00 | 0.00 | 0.00 | 59 | 1013.1 |
| 20260906095239 | 25 | 151 | 0.0 | 0.0 | 0.00 | 0.00 | 0.00 | 58 | 1013.1 |
| 20260906094738 | 25 | 123 | 0.0 | 1.6 | 0.00 | 0.00 | 0.00 | 58 | 1013.0 |
| 20260906094233 | 25 | 163 | 0.0 | 0.0 | 0.00 | 0.00 | 0.00 | 58 | 1013.1 |
| 20260906093730 | 25 | 151 | 0.0 | 0.0 | 0.00 | 0.00 | 0.00 | 58 | 1013.1 |
| 20260906093219 | 26 | 165 | 0.0 | 0.0 | 0.00 | 0.00 | 0.00 | 57 | 1013.2 |
| 20260906092715 | 26 | 146 | 0.0 | 0.0 | 0.00 | 0.00 | 0.00 | 57 | 1013.1 |
| 20260906092209 | 26 | 155 | 1.6 | 1.6 | 0.00 | 0.00 | 0.00 | 57 | 1013.0 |
| 20260906091705 | 26 | 156 | 0.0 | 0.0 | 0.00 | 0.00 | 0.00 | 57 | 1013.1 |
| 20260906091201 | 26 | 152 | 0.0 | 1.6 | 0.00 | 0.00 | 0.00 | 56 | 1013.3 |
| 20260906090657 | 26 | 192 | 0.0 | 1.6 | 0.00 | 0.00 | 0.00 | 56 | 1013.3 |
| 20260906090156 | 26 | 151 | 0.0 | 0.0 | 0.00 | 0.00 | 0.00 | 56 | 1013.2 |
| 20260906085655 | 26 | 157 | 0.0 | 0.0 | 0.00 | 0.00 | 0.00 | 55 | 1013.0 |
| 20260906085154 | 26 | 151 | 0.0 | 0.0 | 0.00 | 0.00 | 0.00 | 55 | 1013.0 |
| 20260906084655 | 26 | 137 | 0.0 | 1.6 | 0.00 | 0.00 | 0.00 | 55 | 1013.0 |
| 20260906084149 | 26 | 147 | 0.0 | 0.0 | 0.00 | 0.00 | 0.00 | 54 | 1012.9 |
| 20260906083644 | 26 | 153 | 0.0 | 0.0 | 0.00 | 0.00 | 0.00 | 54 | 1013.0 |
| 20260906083139 | 26 | 186 | 1.6 | 3.2 | 0.00 | 0.00 | 0.00 | 54 | 1012.8 |
| 20260906082635 | 26 | 187 | 1.6 | 3.2 | 0.00 | 0.00 | 0.00 | 53 | 1013.0 |
| 20260906082130 | 27 | 138 | 0.0 | 0.0 | 0.00 | 0.00 | 0.00 | 53 | 1013.0 |
| 20260906081626 | 27 | 152 | 1.6 | 3.2 | 0.00 | 0.00 | 0.00 | 53 | 1012.8 |
| 20260906081120 | 27 | 112 | 0.0 | 1.6 | 0.00 | 0.00 | 0.00 | 52 | 1013.0 |
| 20260906080617 | 27 | 148 | 0.0 | 1.6 | 0.00 | 0.00 | 0.00 | 52 | 1012.8 |
| 20260906080113 | 27 | 168 | 0.0 | 0.0 | 0.00 | 0.00 | 0.00 | 52 | 1012.9 |
| 20260906075607 | 27 | 155 | 0.0 | 1.6 | 0.00 | 0.00 | 0.00 | 51 | 1013.1 |
| 20260906075102 | 27 | 167 | 1.6 | 3.2 | 0.00 | 0.00 | 0.00 | 51 | 1013.4 |
| 20260906074557 | 27 | 280 | 1.6 | 1.6 | 0.00 | 0.00 | 0.00 | 51 | 1013.2 |
| 20260906074055 | 28 | 184 | 0.0 | 1.6 | 0.00 | 0.00 | 0.00 | 50 | 1013.1 |
| 20260906073550 | 28 | 216 | 0.0 | 1.6 | 0.00 | 0.00 | 0.00 | 50 | 1012.9 |
| 20260906073046 | 28 | 151 | 0.0 | 0.0 | 0.00 | 0.00 | 0.00 | 50 | 1012.9 |
| 20260906072541 | 28 | 92 | 3.2 | 4.8 | 0.00 | 0.00 | 0.00 | 49 | 1012.7 |
| 20260906072037 | 28 | 144 | 1.6 | 3.2 | 0.00 | 0.00 | 0.00 | 49 | 1012.9 |
| 20260906071533 | 28 | 192 | 0.0 | 0.0 | 0.00 | 0.00 | 0.00 | 50 | 1012.9 |
| 20260906071028 | 28 | 143 | 0.0 | 0.0 | 0.00 | 0.00 | 0.00 | 50 | 1013.0 |
| 20260906070524 | 28 | 157 | 0.0 | 1.6 | 0.00 | 0.00 | 0.00 | 49 | 1013.0 |
| 20260906070020 | 28 | 137 | 1.6 | 1.6 | 0.00 | 0.00 | 0.00 | 49 | 1012.9 |
| 20260906065519 | 28 | 140 | 0.0 | 1.6 | 0.00 | 0.00 | 0.00 | 49 | 1012.8 |
| 20260906065010 | 28 | 191 | 1.6 | 3.2 | 0.00 | 0.00 | 0.00 | 48 | 1012.8 |
| 20260906064505 | 28 | 164 | 1.6 | 1.6 | 0.00 | 0.00 | 0.00 | 48 | 1012.8 |
| 20260906064000 | 28 | 146 | 1.6 | 3.2 | 0.00 | 0.00 | 0.00 | 48 | 1012.7 |
| 20260906063455 | 29 | 144 | 1.6 | 1.6 | 0.00 | 0.00 | 0.00 | 47 | 1012.7 |
| 20260906062950 | 29 | 151 | 0.0 | 1.6 | 0.00 | 0.00 | 0.00 | 47 | 1013.0 |
| 20260906062445 | 29 | 168 | 1.6 | 1.6 | 0.00 | 0.00 | 0.00 | 47 | 1013.0 |
| 20260906061940 | 29 | 154 | 0.0 | 0.0 | 0.00 | 0.00 | 0.00 | 47 | 1012.9 |
| 20260906061436 | 29 | 163 | 0.0 | 0.0 | 0.00 | 0.00 | 0.00 | 46 | 1012.9 |
| 20260906060930 | 30 | 149 | 1.6 | 3.2 | 0.00 | 0.00 | 0.00 | 46 | 1012.9 |
| 20260906060427 | 30 | 169 | 0.0 | 1.6 | 0.00 | 0.00 | 0.00 | 46 | 1013.0 |
| 20260906055923 | 30 | 155 | 1.6 | 1.6 | 0.00 | 0.00 | 0.00 | 46 | 1013.0 |
| 20260906055419 | 30 | 130 | 3.2 | 3.2 | 0.00 | 0.00 | 0.00 | 46 | 1012.9 |
| 20260906054914 | 30 | 206 | 4.8 | 6.4 | 0.00 | 0.00 | 0.00 | 45 | 1013.0 |
| 20260906054409 | 30 | 169 | 1.6 | 1.6 | 0.00 | 0.00 | 0.00 | 45 | 1013.0 |
| 20260906053905 | 30 | 184 | 1.6 | 3.2 | 0.00 | 0.00 | 0.00 | 45 | 1013.1 |
| 20260906053400 | 30 | 162 | 1.6 | 1.6 | 0.00 | 0.00 | 0.00 | 45 | 1013.1 |
| 20260906052856 | 30 | 184 | 1.6 | 1.6 | 0.00 | 0.00 | 0.00 | 45 | 1013.2 |
| 20260906052352 | 30 | 156 | 3.2 | 3.2 | 0.00 | 0.00 | 0.00 | 45 | 1013.2 |
| 20260906051849 | 30 | 155 | 0.0 | 0.0 | 0.00 | 0.00 | 0.00 | 45 | 1013.2 |
| 20260906051349 | 30 | 194 | 3.2 | 3.2 | 0.00 | 0.00 | 0.00 | 44 | 1013.3 |
| 20260906050844 | 30 | 183 | 3.2 | 3.2 | 0.00 | 0.00 | 0.00 | 44 | 1013.5 |
| 20260906050339 | 30 | 161 | 1.6 | 1.6 | 0.00 | 0.00 | 0.00 | 44 | 1013.3 |
| 20260906045838 | 30 | 171 | 1.6 | 1.6 | 0.00 | 0.00 | 0.00 | 44 | 1013.4 |
| 20260906045332 | 30 | 160 | 0.0 | 1.6 | 0.00 | 0.00 | 0.00 | 44 | 1013.2 |
| 20260906044828 | 30 | 149 | 4.8 | 4.8 | 0.00 | 0.00 | 0.00 | 43 | 1013.3 |
| 20260906044323 | 30 | 149 | 1.6 | 1.6 | 0.00 | 0.00 | 0.00 | 43 | 1013.3 |
| 20260906043819 | 31 | 136 | 1.6 | 1.6 | 0.00 | 0.00 | 0.00 | 43 | 1013.4 |
| 20260906043315 | 31 | 150 | 1.6 | 1.6 | 0.00 | 0.00 | 0.00 | 43 | 1013.2 |
| 20260906042814 | 31 | 176 | 0.0 | 0.0 | 0.00 | 0.00 | 0.00 | 43 | 1013.2 |
| 20260906042314 | 31 | 154 | 1.6 | 1.6 | 0.00 | 0.00 | 0.00 | 43 | 1013.3 |
| 20260906041809 | 31 | 194 | 3.2 | 4.8 | 0.00 | 0.00 | 0.00 | 42 | 1013.3 |
| 20260906041304 | 31 | 150 | 0.0 | 1.6 | 0.00 | 0.00 | 0.00 | 42 | 1013.3 |
| 20260906040800 | 31 | 186 | 3.2 | 4.8 | 0.00 | 0.00 | 0.00 | 42 | 1013.2 |
| 20260906040255 | 31 | 145 | 1.6 | 1.6 | 0.00 | 0.00 | 0.00 | 42 | 1013.2 |
| 20260906035750 | 31 | 168 | 1.6 | 1.6 | 0.00 | 0.00 | 0.00 | 42 | 1013.4 |
| 20260906035246 | 31 | 111 | 3.2 | 3.2 | 0.00 | 0.00 | 0.00 | 42 | 1013.1 |
| 20260906034745 | 31 | 167 | 1.6 | 3.2 | 0.00 | 0.00 | 0.00 | 42 | 1013.1 |
| 20260906034240 | 31 | 147 | 1.6 | 3.2 | 0.00 | 0.00 | 0.00 | 42 | 1013.3 |
| 20260906033736 | 31 | 159 | 1.6 | 1.6 | 0.00 | 0.00 | 0.00 | 42 | 1013.1 |
| 20260906033235 | 31 | 206 | 0.0 | 0.0 | 0.00 | 0.00 | 0.00 | 42 | 1013.1 |
| 20260906032732 | 31 | 114 | 1.6 | 3.2 | 0.00 | 0.00 | 0.00 | 41 | 1013.2 |
| 20260906032227 | 31 | 138 | 1.6 | 1.6 | 0.00 | 0.00 | 0.00 | 41 | 1013.1 |
| 20260906031722 | 31 | 132 | 1.6 | 1.6 | 0.00 | 0.00 | 0.00 | 41 | 1012.9 |
| 20260906031218 | 31 | 124 | 0.0 | 1.6 | 0.00 | 0.00 | 0.00 | 41 | 1012.9 |
| 20260906030717 | 32 | 118 | 1.6 | 1.6 | 0.00 | 0.00 | 0.00 | 41 | 1012.8 |
| 20260906030212 | 32 | 161 | 0.0 | 0.0 | 0.00 | 0.00 | 0.00 | 40 | 1012.7 |
| 20260906025711 | 32 | 150 | 0.0 | 1.6 | 0.00 | 0.00 | 0.00 | 40 | 1012.5 |
| 20260906025206 | 32 | 93 | 0.0 | 0.0 | 0.00 | 0.00 | 0.00 | 40 | 1012.5 |
| 20260906024706 | 32 | 132 | 1.6 | 1.6 | 0.00 | 0.00 | 0.00 | 40 | 1012.3 |
| 20260906024205 | 32 | 140 | 1.6 | 3.2 | 0.00 | 0.00 | 0.00 | 40 | 1012.2 |
| 20260906023701 | 32 | 163 | 1.6 | 3.2 | 0.00 | 0.00 | 0.00 | 39 | 1012.0 |
| 20260906023201 | 32 | 147 | 1.6 | 1.6 | 0.00 | 0.00 | 0.00 | 39 | 1012.1 |
| 20260906022656 | 32 | 147 | 1.6 | 1.6 | 0.00 | 0.00 | 0.00 | 39 | 1012.0 |
| 20260906022151 | 32 | 92 | 1.6 | 3.2 | 0.00 | 0.00 | 0.00 | 39 | 1011.9 |
| 20260906021647 | 32 | 183 | 0.0 | 1.6 | 0.00 | 0.00 | 0.00 | 38 | 1012.0 |
| 20260906021145 | 32 | 135 | 0.0 | 0.0 | 0.00 | 0.00 | 0.00 | 38 | 1011.8 |
| 20260906020640 | 33 | 181 | 1.6 | 1.6 | 0.00 | 0.00 | 0.00 | 38 | 1011.8 |
| 20260906020135 | 33 | 158 | 0.0 | 0.0 | 0.00 | 0.00 | 0.00 | 38 | 1011.7 |
| 20260906015629 | 33 | 161 | 0.0 | 1.6 | 0.00 | 0.00 | 0.00 | 37 | 1011.5 |
| 20260906015128 | 33 | 242 | 0.0 | 1.6 | 0.00 | 0.00 | 0.00 | 37 | 1011.4 |
| 20260906014623 | 33 | 145 | 1.6 | 3.2 | 0.00 | 0.00 | 0.00 | 37 | 1011.4 |
| 20260906014120 | 33 | 126 | 0.0 | 0.0 | 0.00 | 0.00 | 0.00 | 36 | 1011.2 |
| 20260906013614 | 33 | 157 | 1.6 | 3.2 | 0.00 | 0.00 | 0.00 | 36 | 1011.1 |
| 20260906013110 | 33 | 163 | 0.0 | 0.0 | 0.00 | 0.00 | 0.00 | 36 | 1011.0 |
| 20260906012604 | 33 | 126 | 1.6 | 3.2 | 0.00 | 0.00 | 0.00 | 36 | 1011.1 |
| 20260906012059 | 33 | 157 | 0.0 | 1.6 | 0.00 | 0.00 | 0.00 | 36 | 1010.9 |
| 20260906011555 | 33 | 123 | 0.0 | 0.0 | 0.00 | 0.00 | 0.00 | 36 | 1011.0 |
| 20260906011054 | 34 | 143 | 0.0 | 0.0 | 0.00 | 0.00 | 0.00 | 36 | 1010.8 |
| 20260906010550 | 34 | 136 | 0.0 | 0.0 | 0.00 | 0.00 | 0.00 | 36 | 1010.9 |
| 20260906010046 | 34 | 136 | 3.2 | 3.2 | 0.00 | 0.00 | 0.00 | 36 | 1010.8 |
| 20260906005545 | 35 | 102 | 1.6 | 3.2 | 0.00 | 0.00 | 0.00 | 35 | 1010.7 |
| 20260906005044 | 35 | 165 | 0.0 | 1.6 | 0.00 | 0.00 | 0.00 | 35 | 1010.8 |
| 20260906004544 | 35 | 157 | 1.6 | 3.2 | 0.00 | 0.00 | 0.00 | 35 | 1010.8 |
| 20260906004039 | 35 | 112 | 1.6 | 3.2 | 0.00 | 0.00 | 0.00 | 34 | 1010.7 |
| 20260906003534 | 35 | 154 | 3.2 | 4.8 | 0.00 | 0.00 | 0.00 | 34 | 1010.7 |
| 20260906003030 | 35 | 160 | 1.6 | 1.6 | 0.00 | 0.00 | 0.00 | 34 | 1010.5 |
| 20260906002525 | 35 | 94 | 0.0 | 1.6 | 0.00 | 0.00 | 0.00 | 33 | 1010.6 |
| 20260906002020 | 35 | 142 | 0.0 | 1.6 | 0.00 | 0.00 | 0.00 | 33 | 1010.4 |
| 20260906001515 | 35 | 205 | 1.6 | 1.6 | 0.00 | 0.00 | 0.00 | 32 | 1010.5 |
| 20260906001009 | 36 | 117 | 0.0 | 0.0 | 0.00 | 0.00 | 0.00 | 32 | 1010.6 |
| 20260906000506 | 36 | 164 | 0.0 | 1.6 | 0.00 | 0.00 | 0.00 | 31 | 1010.5 |
| 20260905235959 | 36 | 136 | 3.2 | 3.2 | 0.00 | 0.00 | 0.00 | 32 | 1010.4 |
| 20260905235453 | 36 | 209 | 3.2 | 3.2 | 0.00 | 0.00 | 0.00 | 32 | 1010.3 |
| 20260905234948 | 36 | 169 | 4.8 | 6.4 | 0.00 | 0.00 | 0.00 | 31 | 1010.4 |
| 20260905234444 | 36 | 106 | 4.8 | 6.4 | 0.00 | 0.00 | 0.00 | 32 | 1010.2 |
| 20260905233944 | 36 | 81 | 1.6 | 1.6 | 0.00 | 0.00 | 0.00 | 32 | 1010.2 |
| 20260905233440 | 36 | 137 | 3.2 | 4.8 | 0.00 | 0.00 | 0.00 | 32 | 1010.2 |
| 20260905232938 | 36 | 219 | 1.6 | 3.2 | 0.00 | 0.00 | 0.00 | 32 | 1010.1 |
| 20260905232435 | 36 | 174 | 0.0 | 1.6 | 0.00 | 0.00 | 0.00 | 32 | 1010.3 |
| 20260905231930 | 36 | 122 | 1.6 | 1.6 | 0.00 | 0.00 | 0.00 | 32 | 1010.1 |
| 20260905231426 | 36 | 130 | 1.6 | 1.6 | 0.00 | 0.00 | 0.00 | 32 | 1010.2 |
| 20260905230922 | 37 | 167 | 1.6 | 4.8 | 0.00 | 0.00 | 0.00 | 32 | 1010.1 |
| 20260905230420 | 37 | 242 | 1.6 | 3.2 | 0.00 | 0.00 | 0.00 | 32 | 1010.1 |
| 20260905225914 | 37 | 171 | 1.6 | 1.6 | 0.00 | 0.00 | 0.00 | 32 | 1010.2 |
| 20260905225409 | 37 | 184 | 1.6 | 1.6 | 0.00 | 0.00 | 0.00 | 31 | 1010.1 |
| 20260905224903 | 37 | 190 | 1.6 | 1.6 | 0.00 | 0.00 | 0.00 | 32 | 1010.4 |
| 20260905224359 | 37 | 156 | 8.0 | 11.3 | 0.00 | 0.00 | 0.00 | 31 | 1010.3 |
| 20260905223853 | 37 | 181 | 1.6 | 1.6 | 0.00 | 0.00 | 0.00 | 31 | 1010.3 |
| 20260905223351 | 37 | 163 | 4.8 | 6.4 | 0.00 | 0.00 | 0.00 | 31 | 1010.3 |
| 20260905222851 | 38 | 74 | 1.6 | 1.6 | 0.00 | 0.00 | 0.00 | 32 | 1010.2 |
| 20260905222350 | 38 | 184 | 3.2 | 4.8 | 0.00 | 0.00 | 0.00 | 30 | 1010.2 |
| 20260905221841 | 38 | 174 | 0.0 | 1.6 | 0.00 | 0.00 | 0.00 | 30 | 1010.4 |
| 20260905221338 | 38 | 155 | 6.4 | 6.4 | 0.00 | 0.00 | 0.00 | 30 | 1010.4 |
| 20260905220833 | 38 | 66 | 1.6 | 1.6 | 0.00 | 0.00 | 0.00 | 31 | 1010.3 |
| 20260905220329 | 37 | 189 | 6.4 | 9.7 | 0.00 | 0.00 | 0.00 | 30 | 1010.4 |
| 20260905215828 | 38 | 81 | 0.0 | 1.6 | 0.00 | 0.00 | 0.00 | 30 | 1010.2 |
| 20260905215324 | 38 | 160 | 0.0 | 0.0 | 0.00 | 0.00 | 0.00 | 30 | 1010.5 |